FENGYUN1
1 25730U 99025A 11131.94551681 .00000349 00000-0 22720-3 0 03365
2 25730 098.8179 093.9418 0025794 052.2907 308.0591 14.08608974617969
OKEAN-0
1 25860U 99039A 11131.97446036 .00000349 00000-0 60808-4 0 03083
2 25860 097.8810 099.4239 0001875 084.3905 275.7516 14.73776639635327
NOAA-16
1 26536U 00055A 11131.74140384 -.00000174 00000-0 -69045-4 0 02939
2 26536 099.1418 161.5392 0011262 132.1670 228.0457 14.12614944548219
NOAA-17
1 27453U 02032A 11131.71583535 .00000215 00000-0 11118-3 0 02875
2 27453 098.3812 173.0942 0010719 254.9576 105.0416 14.24269938461462
NOAA-18
1 28654U 05018A 11131.80585174 -.00000047 00000-0 -12949-5 0 07670
2 28654 098.9930 082.8695 0013729 204.5222 155.5305 14.11470328307793
NOAA-19
1 33591U 09005A 11131.79507329 .00000106 00000-0 82787-4 0 09582
2 33591 098.8246 072.5647 0015143 079.3953 280.8913 14.11163841116257
HUBBLE
1 20580U 90037B 11131.68985533 .00001322 00000-0 87520-4 0 7631
2 20580 028.4700 254.8583 0003590 090.6325 269.4677 15.01347649954161
ISS
1 25544U 98067A 11133.06519513 .00025120 00000-0 16978-3 0 3458
2 25544 051.6483 341.0789 0002453 268.0420 239.1666 15.74895012715375
CO-58
1 28895U 05043F 11132.43011153 .00000405 00000-0 93370-4 0 8714
2 28895 097.9711 010.1906 0017206 336.7598 023.2794 14.60091459295026
FALCON
1 30776U 07006E 11132.54287979 .00002180 00000-0 15524-3 0 830
2 30776 035.4346 203.7037 0000456 222.8017 137.2665 15.04564829229679
MAST
1 31126U 07012K 11132.86404719 .00000159 00000-0 46449-4 0 1561
2 31126 097.8974 162.0806 0092844 280.7530 078.3224 14.53738662215957
CAPE1
1 31130U 07012P 11132.54174588 .00000483 00000-0 12165-3 0 1735
2 31130 097.8994 158.5962 0101345 292.3914 066.6527 14.52379776215467
COMPASS
1 32787U 08021E 11132.63885900 .00001195 00000-0 15568-3 0 9832
2 32787 097.8490 197.1127 0014590 294.2794 065.6865 14.82379181164292
AAUSAT2
1 32788U 08021F 11132.67448388 .00001356 00000-0 17499-3 0 9746
2 32788 097.8480 197.3593 0014122 294.5475 065.4290 14.82561305164315
DO-64
1 32789U 08021G 11131.68289716 .00002232 00000-0 28074-3 0 9908
2 32789 097.8583 197.3222 0014244 295.4699 064.5054 14.82992096164179
CO-66
1 32791U 08021J 11132.17559316 .00000726 00000-0 97863-4 0 9765
2 32791 097.8500 196.6102 0014904 294.6905 065.2730 14.82077176164176
RS-30
1 32953U 08025A 11132.65193909 .00000010 00000-0 00000 0 0 7209
2 32953 082.5031 184.8131 0020486 104.0224 256.3136 12.43012564134677
TACSAT-3
1 35001U 09028A 11131.94392030 .00018759 00000-0 34922-3 0 06085
2 35001 040.4544 032.7083 0024704 298.5263 061.3069 15.48018459111460
PHARMSAT
1 35002U 09028B 11132.87095255 .00015373 00000-0 28894-3 0 5470
2 35002 040.4719 024.6773 0026205 310.7303 049.1248 15.47806423111638
HAWKSAT1
1 35003U 09028C 11132.77534478 .00066688 00000-0 73824-3 0 6159
2 35003 040.4561 001.4338 0023797 330.5111 029.4362 15.61665837111887
CP6
1 35004U 09028D 11131.84839786 .00091712 00000-0 83663-3 0 06188
2 35004 040.4556 000.3567 0022219 326.6734 033.2321 15.66467345111808
METEOR-M
1 35865U 09049A 11132.75457713 .00000176 00000-0 10000-3 0 3572
2 35865 098.7088 188.3370 0002955 116.9043 243.2390 14.21838210 85550
RS-38
1 35869U 09049E 11132.75897656 .00000177 00000-0 10000-3 0 3559
2 35869 098.7056 188.3784 0004877 123.7116 236.4507 14.22010297 85563
